Starlink 3675

operational
NORAD ID: 51963 Int'l Des: 2022-025 Owner: SPXS Country: US Constellation: starlink
LEOCIRCULARSTARLINK_TYPE

About Starlink 3675

Description loading...

Live Position

Loading 3D Globe...

Upcoming Passes

Altitude History

Altitude vs Time

uPlot chart will show altitude changes over time

Two-Line Element Set

1 51963U 22025H 25305.52777122 .00001789 00000-0 13906-3 0 9990
2 51963 53.0568 236.9100 0001748 83.4729 276.6459 15.06383038201736
Epoch: Nov 1, 2025 • Age: 22 hours

Current Status

Altitude 566.9 km
Velocity 7.58 km/s
Sub-Earth Point -52.91°S, 65.67°W
Launch Date Mar 9, 2022
Age 3.6 years
Type internet

Technical Details

Classification Payload
Mass 297.00 kg
Dry Mass 275.00 kg
Total Mass 297.00 kg
Length 0.20 m
Diameter 2.80 m
Span 9.00 m
Shape Box + pan
Manufacturer SPXS
Bus Type Starlink
Phase Status In Orbit
Owner/State SPXS/US

Large Constellations

Loading constellations...